Hourly Weather Lezhe

Today, 7 July, Tuesday

Time Temperature Precipitation Wind Pressure Humidity
00:00 +21°C° 0 mm 2 mps 731 mmHg 77%
01:00 +21°C° 0 mm 2 mps 731 mmHg 79%
02:00 +21°C° 0 mm 2 mps 730 mmHg 80%
03:00 +20°C° 0 mm 2 mps 730 mmHg 80%
04:00 +20°C° 0 mm 2 mps 730 mmHg 81%
05:00 +22°C° 0 mm 3 mps 730 mmHg 75%
06:00 +25°C° 0 mm 3 mps 731 mmHg 70%
07:00 +26°C° 0 mm 3 mps 732 mmHg 62%
08:00 +27°C° 0 mm 4 mps 732 mmHg 58%
09:00 +29°C° 0 mm 5 mps 733 mmHg 55%
10:00 +30°C° 0 mm 5 mps 733 mmHg 51%
11:00 +30°C° 0 mm 6 mps 733 mmHg 50%
12:00 +30°C° 0 mm 6 mps 733 mmHg 48%
13:00 +30°C° 0 mm 6 mps 734 mmHg 47%
14:00 +29°C° 0 mm 6 mps 734 mmHg 49%
15:00 +28°C° 0 mm 6 mps 734 mmHg 50%
16:00 +28°C° 0 mm 6 mps 734 mmHg 51%
17:00 +26°C° 0 mm 5 mps 734 mmHg 56%
18:00 +23°C° 0 mm 5 mps 735 mmHg 60%
19:00 +21°C° 0 mm 5 mps 735 mmHg 65%
20:00 +20°C° 0 mm 5 mps 735 mmHg 66%
21:00 +19°C° 0 mm 5 mps 736 mmHg 67%
22:00 +17°C° 0 mm 5 mps 736 mmHg 68%
23:00 +17°C° 0 mm 5 mps 736 mmHg 68%

Tomorrow, 8 July, Wednesday

Time Temperature Precipitation Wind Pressure Humidity
00:00 +16°C° 0 mm 5 mps 736 mmHg 69%
01:00 +16°C° 0 mm 5 mps 737 mmHg 69%
02:00 +15°C° 0 mm 5 mps 737 mmHg 70%
03:00 +15°C° 0 mm 5 mps 736 mmHg 70%
04:00 +14°C° 0 mm 5 mps 736 mmHg 71%
05:00 +16°C° 0 mm 5 mps 737 mmHg 65%
06:00 +19°C° 0 mm 4 mps 737 mmHg 60%
07:00 +20°C° 0 mm 4 mps 737 mmHg 55%
08:00 +22°C° 0 mm 4 mps 737 mmHg 51%
09:00 +25°C° 0 mm 4 mps 737 mmHg 46%
10:00 +26°C° 0 mm 4 mps 738 mmHg 41%
11:00 +27°C° 0 mm 4 mps 737 mmHg 39%
12:00 +28°C° 0 mm 4 mps 737 mmHg 38%
13:00 +29°C° 0 mm 4 mps 737 mmHg 36%
14:00 +29°C° 0 mm 4 mps 737 mmHg 37%
15:00 +29°C° 0 mm 4 mps 737 mmHg 38%
16:00 +29°C° 0 mm 4 mps 737 mmHg 39%
17:00 +27°C° 0 mm 4 mps 737 mmHg 46%
18:00 +25°C° 0 mm 3 mps 737 mmHg 53%
19:00 +22°C° 0 mm 3 mps 737 mmHg 59%
20:00 +21°C° 0 mm 3 mps 737 mmHg 60%
21:00 +20°C° 0 mm 3 mps 738 mmHg 60%
22:00 +19°C° 0 mm 2 mps 738 mmHg 61%
23:00 +19°C° 0 mm 2 mps 738 mmHg 62%

Day after tomorrow, 9 July, Thursday

Time Temperature Precipitation Wind Pressure Humidity
00:00 +19°C° 0 mm 2 mps 738 mmHg 64%
01:00 +18°C° 0 mm 2 mps 738 mmHg 65%
02:00 +18°C° 0 mm 2 mps 738 mmHg 66%
03:00 +18°C° 0 mm 2 mps 738 mmHg 67%
04:00 +17°C° 0 mm 3 mps 738 mmHg 68%
05:00 +19°C° 0 mm 2 mps 738 mmHg 64%
06:00 +21°C° 0 mm 2 mps 738 mmHg 60%
07:00 +24°C° 0 mm 2 mps 738 mmHg 55%
08:00 +26°C° 0 mm 2 mps 739 mmHg 49%
09:00 +28°C° 0 mm 2 mps 739 mmHg 43%
10:00 +30°C° 0 mm 2 mps 739 mmHg 38%
11:00 +31°C° 0 mm 2 mps 738 mmHg 36%
12:00 +31°C° 0 mm 3 mps 738 mmHg 34%
13:00 +33°C° 0 mm 3 mps 738 mmHg 32%
14:00 +33°C° 0 mm 3 mps 738 mmHg 34%
15:00 +33°C° 0 mm 3 mps 738 mmHg 36%
16:00 +33°C° 0 mm 3 mps 738 mmHg 37%
17:00 +29°C° 0 mm 3 mps 738 mmHg 44%
18:00 +27°C° 0 mm 3 mps 737 mmHg 51%
19:00 +25°C° 0 mm 2 mps 737 mmHg 58%
20:00 +24°C° 0 mm 2 mps 738 mmHg 58%
21:00 +23°C° 0 mm 2 mps 738 mmHg 58%
22:00 +23°C° 0 mm 2 mps 738 mmHg 58%
23:00 +21°C° 0 mm 2 mps 738 mmHg 59%

10 July, Friday

Time Temperature Precipitation Wind Pressure Humidity
00:00 +21°C° 0 mm 2 mps 738 mmHg 59%
01:00 +20°C° 0 mm 2 mps 738 mmHg 60%
02:00 +20°C° 0 mm 2 mps 738 mmHg 61%
03:00 +20°C° 0 mm 2 mps 737 mmHg 62%
04:00 +19°C° 0 mm 2 mps 737 mmHg 63%
05:00 +21°C° 0 mm 2 mps 737 mmHg 60%
06:00 +24°C° 0 mm 2 mps 737 mmHg 57%
07:00 +26°C° 0 mm 2 mps 737 mmHg 54%
08:00 +28°C° 0 mm 2 mps 737 mmHg 50%
09:00 +30°C° 0 mm 2 mps 737 mmHg 45%
10:00 +32°C° 0 mm 2 mps 737 mmHg 40%
11:00 +32°C° 0 mm 2 mps 737 mmHg 39%
12:00 +34°C° 0 mm 3 mps 737 mmHg 38%
13:00 +34°C° 0 mm 3 mps 737 mmHg 36%
14:00 +34°C° 0 mm 3 mps 736 mmHg 38%
15:00 +34°C° 0 mm 2 mps 736 mmHg 39%
16:00 +32°C° 0 mm 2 mps 736 mmHg 40%
17:00 +30°C° 0 mm 2 mps 736 mmHg 47%
18:00 +28°C° 0 mm 1 mps 736 mmHg 55%
19:00 +26°C° 0 mm 1 mps 736 mmHg 62%
20:00 +25°C° 0 mm 1 mps 736 mmHg 64%
21:00 +25°C° 0 mm 1 mps 736 mmHg 65%
22:00 +24°C° 0 mm 1 mps 736 mmHg 67%
23:00 +24°C° 0 mm 1 mps 736 mmHg 67%

11 July, Saturday

Time Temperature Precipitation Wind Pressure Humidity
00:00 +23°C° 0 mm 1 mps 736 mmHg 68%
01:00 +23°C° 0 mm 1 mps 736 mmHg 68%
02:00 +23°C° 0 mm 1 mps 736 mmHg 69%
03:00 +22°C° 0 mm 1 mps 736 mmHg 70%
04:00 +22°C° 0 mm 1 mps 736 mmHg 70%
05:00 +24°C° 0 mm 1 mps 736 mmHg 65%
06:00 +26°C° 0 mm 1 mps 736 mmHg 60%
07:00 +28°C° 0 mm 1 mps 736 mmHg 55%
08:00 +29°C° 0 mm 1 mps 736 mmHg 51%
09:00 +31°C° 0 mm 1 mps 736 mmHg 47%
10:00 +32°C° 0 mm 2 mps 736 mmHg 43%
11:00 +32°C° 0.1 mm 2 mps 736 mmHg 42%
12:00 +32°C° 0.1 mm 2 mps 736 mmHg 41%
13:00 +33°C° 0.1 mm 3 mps 736 mmHg 40%
14:00 +33°C° 0.1 mm 3 mps 735 mmHg 41%
15:00 +33°C° 0.1 mm 3 mps 735 mmHg 41%
16:00 +33°C° 0.1 mm 3 mps 735 mmHg 42%
17:00 +29°C° 0 mm 2 mps 735 mmHg 48%
18:00 +27°C° 0 mm 1 mps 735 mmHg 54%
19:00 +23°C° 0 mm 0 mps 735 mmHg 61%
20:00 +22°C° 0 mm 0 mps 735 mmHg 62%
21:00 +22°C° 0 mm 0 mps 735 mmHg 64%
22:00 +21°C° 0 mm 0 mps 735 mmHg 66%
23:00 +22°C° 0 mm 1 mps 736 mmHg 68%

12 July, Sunday

Time Temperature Precipitation Wind Pressure Humidity
00:00 +22°C° 0 mm 1 mps 736 mmHg 69%
01:00 +22°C° 0 mm 1 mps 736 mmHg 70%
02:00 +21°C° 0 mm 1 mps 736 mmHg 71%
03:00 +20°C° 0 mm 2 mps 736 mmHg 71%
04:00 +20°C° 0 mm 2 mps 736 mmHg 72%
05:00 +21°C° 0 mm 2 mps 737 mmHg 70%
06:00 +24°C° 0 mm 3 mps 737 mmHg 68%
07:00 +25°C° 0 mm 3 mps 737 mmHg 65%
08:00 +27°C° 0 mm 3 mps 738 mmHg 61%
09:00 +28°C° 0 mm 3 mps 738 mmHg 56%
10:00 +29°C° 0 mm 3 mps 738 mmHg 51%
11:00 +30°C° 0 mm 3 mps 738 mmHg 49%
12:00 +30°C° 0 mm 4 mps 738 mmHg 48%
13:00 +32°C° 0 mm 5 mps 738 mmHg 46%
14:00 +30°C° 0 mm 4 mps 738 mmHg 47%
15:00 +30°C° 0 mm 4 mps 738 mmHg 48%
16:00 +29°C° 0 mm 4 mps 738 mmHg 49%
17:00 +28°C° 0 mm 4 mps 738 mmHg 54%
18:00 +26°C° 0 mm 4 mps 738 mmHg 58%
19:00 +23°C° 0 mm 4 mps 738 mmHg 62%
20:00 +22°C° 0 mm 4 mps 739 mmHg 62%
21:00 +21°C° 0 mm 4 mps 739 mmHg 62%
22:00 +20°C° 0 mm 4 mps 739 mmHg 63%
23:00 +19°C° 0 mm 4 mps 739 mmHg 64%
Show more